Time,TemperatureF,DewpointF,PressureIn,WindDirection,WindDirectionDegrees,WindSpeedMPH,WindSpeedGustMPH,Humidity,HourlyPrecipIn,Conditions,Clouds,dailyrainin,SoftwareType,DateUTC
2015-03-01 00:00:00,21.3,18.0,30.25,South,181,1.0,13.0,87,0.00,,,0.00,Wunderground v.1.15,2015-03-01 06:00:00,
2015-03-01 00:06:00,21.2,17.9,30.25,South,181,1.0,13.0,87,0.00,,,0.00,Wunderground v.1.15,2015-03-01 06:06:00,
2015-03-01 00:11:00,21.2,17.9,30.25,South,181,1.0,13.0,87,0.00,,,0.00,Wunderground v.1.15,2015-03-01 06:11:00,
2015-03-01 00:17:00,21.2,17.9,30.25,South,181,1.0,13.0,87,0.00,,,0.00,Wunderground v.1.15,2015-03-01 06:17:00,
2015-03-01 00:23:00,21.1,17.8,30.25,South,181,2.0,13.0,87,0.00,,,0.00,Wunderground v.1.15,2015-03-01 06:23:00,
2015-03-01 00:29:00,21.1,17.8,30.25,South,181,2.0,13.0,87,0.00,,,0.00,Wunderground v.1.15,2015-03-01 06:29:00,
2015-03-01 00:35:00,21.1,17.8,30.26,South,181,1.0,13.0,87,0.00,,,0.00,Wunderground v.1.15,2015-03-01 06:35:00,
2015-03-01 00:41:00,21.1,17.8,30.26,South,181,1.0,13.0,87,0.00,,,0.00,Wunderground v.1.15,2015-03-01 06:41:00,
2015-03-01 00:47:00,21.0,17.7,30.26,South,181,1.0,13.0,87,0.00,,,0.00,Wunderground v.1.15,2015-03-01 06:47:00,
2015-03-01 00:52:00,21.0,17.7,30.26,South,181,0.0,13.0,87,0.00,,,0.00,Wunderground v.1.15,2015-03-01 06:52:00,
2015-03-01 00:58:00,21.1,17.8,30.26,South,181,0.0,13.0,87,0.00,,,0.00,Wunderground v.1.15,2015-03-01 06:58:00,
2015-03-01 01:03:00,21.1,17.8,30.25,South,181,0.0,13.0,87,0.00,,,0.00,Wunderground v.1.15,2015-03-01 07:03:00,
2015-03-01 01:09:00,21.0,17.7,30.25,South,181,0.0,13.0,87,0.00,,,0.00,Wunderground v.1.15,2015-03-01 07:09:00,
2015-03-01 01:15:00,21.0,17.7,30.25,South,181,0.0,13.0,87,0.00,,,0.00,Wunderground v.1.15,2015-03-01 07:15:00,
2015-03-01 01:21:00,20.9,17.9,30.26,South,181,1.0,13.0,88,0.00,,,0.00,Wunderground v.1.15,2015-03-01 07:21:00,
2015-03-01 01:27:00,20.9,17.9,30.26,South,181,1.0,13.0,88,0.00,,,0.00,Wunderground v.1.15,2015-03-01 07:27:00,
2015-03-01 01:33:00,20.9,17.9,30.27,South,181,1.0,13.0,88,0.00,,,0.00,Wunderground v.1.15,2015-03-01 07:33:00,
2015-03-01 01:39:00,21.0,18.0,30.27,South,181,0.0,13.0,88,0.00,,,0.00,Wunderground v.1.15,2015-03-01 07:39:00,
2015-03-01 01:44:00,20.9,17.9,30.27,South,181,0.0,13.0,88,0.00,,,0.00,Wunderground v.1.15,2015-03-01 07:44:00,
2015-03-01 01:50:00,20.8,17.8,30.26,South,181,0.0,13.0,88,0.00,,,0.00,Wunderground v.1.15,2015-03-01 07:50:00,
2015-03-01 01:55:00,20.8,17.8,30.26,South,181,0.0,13.0,88,0.00,,,0.00,Wunderground v.1.15,2015-03-01 07:55:00,
2015-03-01 02:00:00,20.8,17.8,30.26,South,181,0.0,13.0,88,0.00,,,0.00,Wunderground v.1.15,2015-03-01 08:00:00,
2015-03-01 02:05:00,20.8,17.8,30.26,South,181,0.0,13.0,88,0.00,,,0.00,Wunderground v.1.15,2015-03-01 08:05:00,
2015-03-01 02:10:00,20.8,17.8,30.26,South,181,0.0,13.0,88,0.00,,,0.00,Wunderground v.1.15,2015-03-01 08:10:00,
2015-03-01 02:15:00,20.7,17.7,30.26,South,181,0.0,13.0,88,0.00,,,0.00,Wunderground v.1.15,2015-03-01 08:15:00,
2015-03-01 02:21:00,20.7,17.7,30.26,South,181,0.0,13.0,88,0.00,,,0.00,Wunderground v.1.15,2015-03-01 08:21:00,
2015-03-01 02:26:00,20.6,17.9,30.26,South,181,0.0,13.0,89,0.00,,,0.00,Wunderground v.1.15,2015-03-01 08:26:00,
2015-03-01 02:31:00,20.7,18.0,30.26,South,181,0.0,13.0,89,0.00,,,0.00,Wunderground v.1.15,2015-03-01 08:31:00,
2015-03-01 02:37:00,20.6,17.6,30.25,South,181,0.0,13.0,88,0.00,,,0.00,Wunderground v.1.15,2015-03-01 08:37:00,
2015-03-01 02:43:00,20.6,17.6,30.25,South,181,1.0,13.0,88,0.00,,,0.00,Wunderground v.1.15,2015-03-01 08:43:00,
2015-03-01 02:49:00,20.5,17.5,30.25,South,181,1.0,13.0,88,0.00,,,0.00,Wunderground v.1.15,2015-03-01 08:49:00,
2015-03-01 02:55:00,20.4,17.7,30.25,South,181,1.0,13.0,89,0.00,,,0.00,Wunderground v.1.15,2015-03-01 08:55:00,
2015-03-01 03:01:00,20.4,17.7,30.25,South,181,0.0,13.0,89,0.00,,,0.00,Wunderground v.1.15,2015-03-01 09:01:00,
2015-03-01 03:07:00,20.4,17.7,30.25,South,181,1.0,13.0,89,0.00,,,0.00,Wunderground v.1.15,2015-03-01 09:07:00,
2015-03-01 03:12:00,20.5,17.8,30.25,South,181,1.0,13.0,89,0.00,,,0.00,Wunderground v.1.15,2015-03-01 09:12:00,
2015-03-01 03:17:00,20.4,17.7,30.25,South,181,1.0,13.0,89,0.00,,,0.00,Wunderground v.1.15,2015-03-01 09:17:00,
2015-03-01 03:23:00,20.4,17.7,30.25,South,181,1.0,13.0,89,0.00,,,0.00,Wunderground v.1.15,2015-03-01 09:23:00,
2015-03-01 03:29:00,20.4,18.0,30.25,South,181,1.0,4.0,89,0.00,,,0.00,weatherlink.com 1.10,2015-03-01 09:29:00,
2015-03-01 03:34:00,20.4,17.7,30.25,South,181,1.0,13.0,89,0.00,,,0.00,Wunderground v.1.15,2015-03-01 09:34:00,
2015-03-01 03:39:00,20.4,17.7,30.25,South,181,1.0,13.0,89,0.00,,,0.00,Wunderground v.1.15,2015-03-01 09:39:00,
2015-03-01 03:44:00,20.3,17.6,30.25,South,181,1.0,13.0,89,0.00,,,0.00,Wunderground v.1.15,2015-03-01 09:44:00,
2015-03-01 03:50:00,20.3,17.6,30.25,South,181,0.0,13.0,89,0.00,,,0.00,Wunderground v.1.15,2015-03-01 09:50:00,
2015-03-01 03:55:00,20.3,17.6,30.25,South,181,0.0,13.0,89,0.00,,,0.00,Wunderground v.1.15,2015-03-01 09:55:00,
2015-03-01 04:00:00,20.3,17.6,30.25,South,181,0.0,13.0,89,0.00,,,0.00,Wunderground v.1.15,2015-03-01 10:00:00,
2015-03-01 04:05:00,20.3,17.6,30.25,South,181,0.0,13.0,89,0.00,,,0.00,Wunderground v.1.15,2015-03-01 10:05:00,
2015-03-01 04:11:00,20.3,17.6,30.26,South,181,0.0,13.0,89,0.00,,,0.00,Wunderground v.1.15,2015-03-01 10:11:00,
2015-03-01 04:17:00,20.3,17.6,30.25,South,181,1.0,13.0,89,0.00,,,0.00,Wunderground v.1.15,2015-03-01 10:17:00,
2015-03-01 04:23:00,20.3,17.6,30.25,South,181,0.0,13.0,89,0.00,,,0.00,Wunderground v.1.15,2015-03-01 10:23:00,
2015-03-01 04:28:00,20.3,17.6,30.25,South,181,0.0,13.0,89,0.00,,,0.00,Wunderground v.1.15,2015-03-01 10:28:00,
2015-03-01 04:43:00,20.3,18.0,30.25,South,181,0.0,2.0,89,0.00,,,0.00,weatherlink.com 1.10,2015-03-01 10:43:00,
2015-03-01 04:58:00,20.2,18.0,30.26,South,181,0.0,0.0,89,0.00,,,0.00,weatherlink.com 1.10,2015-03-01 10:58:00,
2015-03-01 05:13:00,20.3,18.0,30.26,South,181,0.0,0.0,90,0.00,,,0.00,weatherlink.com 1.10,2015-03-01 11:13:00,
2015-03-01 05:28:00,20.3,18.0,30.27,South,181,0.0,0.0,90,0.00,,,0.00,weatherlink.com 1.10,2015-03-01 11:28:00,
2015-03-01 05:43:00,20.2,18.0,30.27,South,181,0.0,0.0,89,0.00,,,0.00,weatherlink.com 1.10,2015-03-01 11:43:00,
2015-03-01 05:58:00,20.2,18.0,30.28,South,181,0.0,0.0,90,0.00,,,0.00,weatherlink.com 1.10,2015-03-01 11:58:00,
2015-03-01 06:13:00,20.1,18.0,30.28,South,181,0.0,0.0,90,0.00,,,0.00,weatherlink.com 1.10,2015-03-01 12:13:00,
2015-03-01 06:28:00,20.1,18.0,30.28,South,181,0.0,0.0,90,0.00,,,0.00,weatherlink.com 1.10,2015-03-01 12:28:00,
2015-03-01 06:34:00,20.0,17.5,30.28,South,181,0.0,13.0,90,0.00,,,0.00,Wunderground v.1.15,2015-03-01 12:34:00,
2015-03-01 06:40:00,19.9,17.4,30.28,South,181,0.0,13.0,90,0.00,,,0.00,Wunderground v.1.15,2015-03-01 12:40:00,
2015-03-01 06:45:00,19.8,17.3,30.28,South,181,0.0,13.0,90,0.00,,,0.00,Wunderground v.1.15,2015-03-01 12:45:00,
2015-03-01 06:51:00,19.7,17.2,30.28,South,181,0.0,13.0,90,0.00,,,0.00,Wunderground v.1.15,2015-03-01 12:51:00,
2015-03-01 06:57:00,19.5,17.0,30.27,South,181,0.0,13.0,90,0.00,,,0.00,Wunderground v.1.15,2015-03-01 12:57:00,
2015-03-01 07:03:00,19.5,17.0,30.27,South,181,0.0,13.0,90,0.00,,,0.00,Wunderground v.1.15,2015-03-01 13:03:00,
2015-03-01 07:09:00,19.4,16.9,30.28,South,181,0.0,13.0,90,0.00,,,0.00,Wunderground v.1.15,2015-03-01 13:09:00,
2015-03-01 07:15:00,19.4,17.0,30.27,South,181,0.0,0.0,91,0.00,,,0.00,weatherlink.com 1.10,2015-03-01 13:15:00,
2015-03-01 07:21:00,19.5,17.3,30.27,South,181,0.0,13.0,91,0.00,,,0.00,Wunderground v.1.15,2015-03-01 13:21:00,
2015-03-01 07:27:00,19.7,17.5,30.28,South,181,0.0,13.0,91,0.00,,,0.00,Wunderground v.1.15,2015-03-01 13:27:00,
2015-03-01 07:33:00,20.0,18.1,30.28,South,181,0.0,13.0,92,0.00,,,0.00,Wunderground v.1.15,2015-03-01 13:33:00,
2015-03-01 07:39:00,20.2,18.2,30.28,South,181,0.0,13.0,92,0.00,,,0.00,Wunderground v.1.15,2015-03-01 13:39:00,
2015-03-01 07:45:00,20.9,18.9,30.28,South,181,0.0,13.0,92,0.00,,,0.00,Wunderground v.1.15,2015-03-01 13:45:00,
2015-03-01 07:51:00,21.5,19.3,30.29,South,181,0.0,13.0,91,0.00,,,0.00,Wunderground v.1.15,2015-03-01 13:51:00,
2015-03-01 07:56:00,21.7,19.2,30.29,South,181,0.0,13.0,90,0.00,,,0.00,Wunderground v.1.15,2015-03-01 13:56:00,
2015-03-01 08:02:00,21.9,19.2,30.29,South,181,0.0,13.0,89,0.00,,,0.00,Wunderground v.1.15,2015-03-01 14:02:00,
2015-03-01 08:07:00,21.9,18.9,30.29,South,181,0.0,13.0,88,0.00,,,0.00,Wunderground v.1.15,2015-03-01 14:07:00,
2015-03-01 08:12:00,22.0,19.0,30.30,South,181,0.0,13.0,88,0.00,,,0.00,Wunderground v.1.15,2015-03-01 14:12:00,
2015-03-01 08:17:00,22.1,19.1,30.30,South,181,1.0,13.0,88,0.00,,,0.00,Wunderground v.1.15,2015-03-01 14:17:00,
2015-03-01 08:23:00,22.2,19.2,30.30,South,181,1.0,13.0,88,0.00,,,0.00,Wunderground v.1.15,2015-03-01 14:23:00,
2015-03-01 08:29:00,22.7,20.0,30.30,South,181,0.0,4.0,88,0.00,,,0.00,weatherlink.com 1.10,2015-03-01 14:29:00,
2015-03-01 08:34:00,23.3,20.0,30.30,SSW,209,1.0,13.0,87,0.00,,,0.00,Wunderground v.1.15,2015-03-01 14:34:00,
2015-03-01 08:40:00,24.0,20.4,30.31,WSW,248,2.0,13.0,86,0.00,,,0.00,Wunderground v.1.15,2015-03-01 14:40:00,
2015-03-01 08:46:00,24.2,20.1,30.31,WNW,285,2.0,13.0,84,0.00,,,0.00,Wunderground v.1.15,2015-03-01 14:46:00,
2015-03-01 08:52:00,24.2,20.1,30.31,WNW,295,3.0,13.0,84,0.00,,,0.00,Wunderground v.1.15,2015-03-01 14:52:00,
2015-03-01 08:58:00,24.5,20.0,30.31,NW,305,3.0,5.0,83,0.00,,,0.00,weatherlink.com 1.10,2015-03-01 14:58:00,
2015-03-01 09:03:00,24.8,20.7,30.32,NW,306,3.0,13.0,84,0.00,,,0.00,Wunderground v.1.15,2015-03-01 15:03:00,
2015-03-01 09:09:00,25.5,21.1,30.32,NW,306,2.0,13.0,83,0.00,,,0.00,Wunderground v.1.15,2015-03-01 15:09:00,
2015-03-01 09:15:00,26.0,21.0,30.33,NW,312,3.0,5.0,82,0.00,,,0.00,weatherlink.com 1.10,2015-03-01 15:15:00,
2015-03-01 09:20:00,26.5,21.7,30.33,NW,314,3.0,13.0,82,0.00,,,0.00,Wunderground v.1.15,2015-03-01 15:20:00,
2015-03-01 09:26:00,27.1,22.0,30.33,NW,314,3.0,13.0,81,0.00,,,0.00,Wunderground v.1.15,2015-03-01 15:26:00,
2015-03-01 09:32:00,27.7,22.3,30.33,NW,313,2.0,13.0,80,0.00,,,0.00,Wunderground v.1.15,2015-03-01 15:32:00,
2015-03-01 09:38:00,28.0,22.0,30.33,NW,313,2.0,13.0,78,0.00,,,0.00,Wunderground v.1.15,2015-03-01 15:38:00,
2015-03-01 09:44:00,28.0,22.0,30.33,NW,315,2.0,5.0,78,0.00,,,0.00,weatherlink.com 1.10,2015-03-01 15:44:00,
2015-03-01 09:49:00,27.9,21.9,30.33,NW,316,3.0,13.0,78,0.00,,,0.00,Wunderground v.1.15,2015-03-01 15:49:00,
2015-03-01 09:55:00,27.9,21.9,30.34,NW,315,2.0,13.0,78,0.00,,,0.00,Wunderground v.1.15,2015-03-01 15:55:00,
2015-03-01 10:01:00,28.1,22.1,30.34,NW,315,1.0,13.0,78,0.00,,,0.00,Wunderground v.1.15,2015-03-01 16:01:00,
2015-03-01 10:07:00,28.4,22.4,30.33,NW,315,1.0,13.0,78,0.00,,,0.00,Wunderground v.1.15,2015-03-01 16:07:00,
2015-03-01 10:13:00,28.7,22.4,30.34,NW,316,2.0,13.0,77,0.00,,,0.00,Wunderground v.1.15,2015-03-01 16:13:00,
2015-03-01 10:18:00,29.1,22.8,30.33,NW,316,2.0,13.0,77,0.00,,,0.00,Wunderground v.1.15,2015-03-01 16:18:00,
2015-03-01 10:24:00,29.8,22.8,30.33,NW,317,2.0,13.0,75,0.00,,,0.00,Wunderground v.1.15,2015-03-01 16:24:00,
2015-03-01 10:30:00,30.5,23.2,30.34,NW,317,1.0,13.0,74,0.00,,,0.00,Wunderground v.1.15,2015-03-01 16:30:00,
2015-03-01 10:36:00,31.0,23.7,30.34,NW,317,1.0,13.0,74,0.00,,,0.00,Wunderground v.1.15,2015-03-01 16:36:00,
2015-03-01 10:41:00,31.6,23.9,30.34,NW,316,1.0,13.0,73,0.00,,,0.00,Wunderground v.1.15,2015-03-01 16:41:00,
2015-03-01 10:47:00,32.2,23.5,30.34,NW,316,2.0,13.0,70,0.00,,,0.00,Wunderground v.1.15,2015-03-01 16:47:00,
2015-03-01 10:53:00,32.6,23.9,30.34,NW,317,1.0,13.0,70,0.00,,,0.01,Wunderground v.1.15,2015-03-01 16:53:00,
2015-03-01 10:59:00,33.1,24.7,30.34,NW,317,0.0,13.0,71,0.00,,,0.01,Wunderground v.1.15,2015-03-01 16:59:00,
2015-03-01 11:05:00,33.4,24.0,30.34,NW,317,1.0,13.0,68,0.04,,,0.02,Wunderground v.1.15,2015-03-01 17:05:00,
2015-03-01 11:11:00,33.5,24.4,30.33,NW,317,1.0,13.0,69,0.04,,,0.02,Wunderground v.1.15,2015-03-01 17:11:00,
2015-03-01 11:17:00,33.5,23.7,30.34,NW,318,1.0,13.0,67,0.04,,,0.02,Wunderground v.1.15,2015-03-01 17:17:00,
2015-03-01 11:23:00,33.0,22.9,30.33,NW,319,1.0,13.0,66,0.04,,,0.03,Wunderground v.1.15,2015-03-01 17:23:00,
2015-03-01 11:29:00,32.4,23.0,30.33,NNW,335,2.0,6.0,67,0.03,,,0.03,weatherlink.com 1.10,2015-03-01 17:29:00,
2015-03-01 11:34:00,31.6,22.2,30.33,North,350,3.0,13.0,68,0.04,,,0.03,Wunderground v.1.15,2015-03-01 17:34:00,
2015-03-01 11:40:00,31.4,22.7,30.33,North,350,3.0,3.0,70,0.00,,,0.04,Wunderground v.1.15,2015-03-01 17:40:00,
2015-03-01 11:59:00,32.9,25.0,30.33,NNW,340,4.0,6.0,72,0.04,,,0.05,weatherlink.com 1.10,2015-03-01 17:59:00,
2015-03-01 12:14:00,33.1,23.0,30.34,North,354,0.0,8.0,67,0.03,,,0.05,weatherlink.com 1.10,2015-03-01 18:14:00,
2015-03-01 12:29:00,32.4,23.0,30.34,North,5,0.0,7.0,69,0.02,,,0.05,weatherlink.com 1.10,2015-03-01 18:29:00,
2015-03-01 12:44:00,32.0,24.0,30.33,North,358,0.0,8.0,71,0.01,,,0.05,weatherlink.com 1.10,2015-03-01 18:44:00,
2015-03-01 12:59:00,31.9,23.0,30.34,North,5,2.0,7.0,69,0.00,,,0.05,weatherlink.com 1.10,2015-03-01 18:59:00,
2015-03-01 13:14:00,31.9,23.0,30.33,NNE,15,1.0,9.0,69,0.00,,,0.05,weatherlink.com 1.10,2015-03-01 19:14:00,
2015-03-01 13:29:00,31.7,23.0,30.32,NNE,27,4.0,9.0,70,0.00,,,0.05,weatherlink.com 1.10,2015-03-01 19:29:00,
2015-03-01 13:44:00,32.1,24.0,30.32,NNE,23,1.0,7.0,71,0.00,,,0.05,weatherlink.com 1.10,2015-03-01 19:44:00,
2015-03-01 13:59:00,32.2,23.0,30.32,NNE,15,4.0,11.0,69,0.00,,,0.05,weatherlink.com 1.10,2015-03-01 19:59:00,
2015-03-01 14:14:00,32.7,24.0,30.32,North,1,5.0,11.0,69,0.00,,,0.05,weatherlink.com 1.10,2015-03-01 20:14:00,
2015-03-01 14:29:00,32.6,23.0,30.32,NNE,21,6.0,12.0,67,0.00,,,0.05,weatherlink.com 1.10,2015-03-01 20:29:00,
2015-03-01 14:44:00,32.8,23.0,30.32,NNE,28,4.0,10.0,67,0.01,,,0.06,weatherlink.com 1.10,2015-03-01 20:44:00,
2015-03-01 14:59:00,33.5,23.0,30.32,NE,54,5.0,10.0,66,0.01,,,0.06,weatherlink.com 1.10,2015-03-01 20:59:00,
2015-03-01 15:14:00,33.7,23.0,30.32,NNW,345,6.0,10.0,65,0.01,,,0.06,weatherlink.com 1.10,2015-03-01 21:14:00,
2015-03-01 15:29:00,33.8,23.0,30.32,NNE,21,0.0,10.0,64,0.01,,,0.06,weatherlink.com 1.10,2015-03-01 21:29:00,
2015-03-01 15:44:00,33.5,23.0,30.32,NNE,26,5.0,10.0,66,0.00,,,0.06,weatherlink.com 1.10,2015-03-01 21:44:00,
2015-03-01 15:59:00,33.2,24.0,30.32,NNW,342,6.0,8.0,68,0.00,,,0.06,weatherlink.com 1.10,2015-03-01 21:59:00,
2015-03-01 16:14:00,33.6,23.0,30.32,North,356,2.0,7.0,65,0.00,,,0.06,weatherlink.com 1.10,2015-03-01 22:14:00,
2015-03-01 16:29:00,33.5,23.0,30.32,North,354,3.0,8.0,66,0.00,,,0.06,weatherlink.com 1.10,2015-03-01 22:29:00,
2015-03-01 16:44:00,34.1,23.0,30.32,North,1,3.0,8.0,65,0.00,,,0.06,weatherlink.com 1.10,2015-03-01 22:44:00,
2015-03-01 16:59:00,34.2,23.0,30.32,NNW,340,6.0,9.0,64,0.00,,,0.06,weatherlink.com 1.10,2015-03-01 22:59:00,
2015-03-01 17:14:00,34.1,23.0,30.32,North,351,3.0,7.0,64,0.00,,,0.06,weatherlink.com 1.10,2015-03-01 23:14:00,
2015-03-01 17:29:00,34.1,23.0,30.32,North,10,1.0,7.0,63,0.00,,,0.06,weatherlink.com 1.10,2015-03-01 23:29:00,
2015-03-01 17:44:00,33.9,23.0,30.33,NNW,348,3.0,7.0,65,0.00,,,0.06,weatherlink.com 1.10,2015-03-01 23:44:00,
2015-03-01 17:59:00,33.6,23.0,30.33,NNW,345,2.0,5.0,65,0.00,,,0.06,weatherlink.com 1.10,2015-03-01 23:59:00,
2015-03-01 18:14:00,33.1,23.0,30.33,NNW,343,2.0,4.0,67,0.00,,,0.06,weatherlink.com 1.10,2015-03-02 00:14:00,
2015-03-01 18:29:00,32.4,23.0,30.33,NNW,343,2.0,4.0,68,0.00,,,0.06,weatherlink.com 1.10,2015-03-02 00:29:00,
2015-03-01 18:44:00,31.6,23.0,30.33,NNW,343,2.0,4.0,70,0.00,,,0.06,weatherlink.com 1.10,2015-03-02 00:44:00,
2015-03-01 18:59:00,30.9,23.0,30.34,NNW,343,1.0,3.0,72,0.00,,,0.06,weatherlink.com 1.10,2015-03-02 00:59:00,
2015-03-01 19:14:00,30.3,23.0,30.34,NNW,343,0.0,3.0,73,0.00,,,0.06,weatherlink.com 1.10,2015-03-02 01:14:00,
2015-03-01 19:29:00,29.9,23.0,30.35,NNW,343,0.0,0.0,74,0.00,,,0.06,weatherlink.com 1.10,2015-03-02 01:29:00,
2015-03-01 19:44:00,29.6,23.0,30.36,NNW,343,0.0,0.0,75,0.00,,,0.06,weatherlink.com 1.10,2015-03-02 01:44:00,
2015-03-01 19:59:00,29.2,23.0,30.36,NNW,343,0.0,0.0,76,0.00,,,0.06,weatherlink.com 1.10,2015-03-02 01:59:00,
2015-03-01 20:14:00,28.8,22.0,30.37,NNW,343,0.0,0.0,77,0.00,,,0.06,weatherlink.com 1.10,2015-03-02 02:14:00,
2015-03-01 20:29:00,28.3,22.0,30.38,NNW,343,0.0,0.0,78,0.00,,,0.06,weatherlink.com 1.10,2015-03-02 02:29:00,
2015-03-01 20:44:00,27.9,22.0,30.37,NNW,343,0.0,0.0,78,0.00,,,0.06,weatherlink.com 1.10,2015-03-02 02:44:00,
2015-03-01 21:00:00,27.4,22.0,30.37,NNW,343,0.0,0.0,80,0.00,,,0.06,weatherlink.com 1.10,2015-03-02 03:00:00,
2015-03-01 21:14:00,27.1,22.0,30.37,NNW,343,0.0,0.0,81,0.00,,,0.06,weatherlink.com 1.10,2015-03-02 03:14:00,
2015-03-01 21:44:00,26.3,22.0,30.39,NNW,343,0.0,0.0,82,0.00,,,0.06,weatherlink.com 1.10,2015-03-02 03:44:00,
2015-03-01 21:59:00,25.8,21.0,30.39,NNW,343,0.0,0.0,83,0.00,,,0.06,weatherlink.com 1.10,2015-03-02 03:59:00,
2015-03-01 22:14:00,25.7,22.0,30.40,NNW,343,0.0,0.0,85,0.00,,,0.06,weatherlink.com 1.10,2015-03-02 04:14:00,
2015-03-01 22:30:00,25.5,22.0,30.40,NNW,343,0.0,0.0,85,0.00,,,0.06,weatherlink.com 1.10,2015-03-02 04:30:00,
2015-03-01 22:45:00,25.3,22.0,30.41,NNW,343,0.0,0.0,86,0.00,,,0.06,weatherlink.com 1.10,2015-03-02 04:45:00,
2015-03-01 23:00:00,24.9,21.0,30.41,NNW,343,0.0,0.0,85,0.00,,,0.06,weatherlink.com 1.10,2015-03-02 05:00:00,
2015-03-01 23:15:00,24.4,21.0,30.41,NNW,343,0.0,0.0,86,0.00,,,0.06,weatherlink.com 1.10,2015-03-02 05:15:00,